Погода в Тихвине

Погода в Тихвине : погода сейчас, прогноз погоды и архив. Всё, что Вы хотите узнать о погоде в Тихвине!

Хотите узнать прогноз погоды в Тихвине? Тогда Вам сюда: Погода в Тихвине

Поиск расширенной информации на нашем сайте:

Другие новости

Новости СМИ2

Главная страница сайта

Новости сайта

03.07.2017

Напоминаем, что на нашем специализированном сайте Метеоцентр.Азия вы можете получить высокодетализированные автоматические прогнозы погоды по пунктам России, СНГ и мира в авиационном формате (включающие направление и скорость ветра, видимость, явления погоды, количество и форму облачности, нижнюю и верхнюю границу облачности).


Погода в Тихвине - сегодня

Время (UTC), дата Ветер
(°,м/с) 
Видим.   Явления Облачность Т
(°С)
Тd
(°С)
f(%) Тe
(°С)
Pmin
(гПа)
dP
(гПа)
Po
(мм)
O2
(г/м3)
Тmin Tmax R s Состояние
почвы
15 19.07.17 350 (С) 40000 м    9/0 средняя, верхняя 
[Ac trans|Ci fib]
+14.9 +6.7 58 +16  1013.6  -0.1  755  287         
18 19.07.17 190 (Ю) 30000 м    6/0 средняя, верхняя 
[Ac trans|Ci fib]
+12.6 +9.5 81 +14  1013.7  0.1  755  289    +18.6     
21 19.07.17 180 (Ю) н/о    н/о 
+10.5 +9.1 91 +12  1013.4  -0.4  754  291           
00 20.07.17 180 (Ю) 20000 м    8/0 средняя 
[Ac trans]
+9 +8.4 96 +10  1013.4  754  293           
03 20.07.17 190 (Ю) 22000 м    3/0 средняя, верхняя 
[Ac trans|Ci sp]
+11.2 +9.8 91 +13  1012.8  -0.6  754  290  +8.9         
06 20.07.17 230 (ЮЗ) 10 км  слаб. ливневой дождь  9/5 600 м кучево-дожд., средняя 
[Cb cap|Ac trans]
+13.5 +10.3 81 +15  1013.1  0.4  754  288  +8.9    0.0    влажная 
09 20.07.17 250 (З) 30000 м  {ливн. осадки}  6/3 600 м средняя 
[Sc diur, vesp|Ac trans]
+16.8 +9.9 64 +19  1012.4  -0.6  754  284           
12 20.07.17 310 (СЗ) 30000 м  {ливн. осадки}  8/5 1000 м кучево-дожд., средняя, верхняя 
[Cb cap|Ac trans|Ci fib]
+16.5 +9.7 64 +18  1012  -0.4  753  285           
15 20.07.17 280 (З) 50000 м    6/3 1000 м средняя, верхняя 
[Cu med, cong|Ac trans|Ci fib]
+18.6 +7.9 50 +20  1011.8  -0.2  753  283      0.3     
18 20.07.17 170 (Ю) 20000 м  в посл. час дождь  9/6 1000 м средняя 
[Sc|Ac trans]
+13 +11.9 93 +18  1012.4  0.5  754  288    +19  0.6     
21 20.07.17 тихо ()   4000 м  дымка  5/0 средняя, верхняя 
[Ac trans|Cc]
+9.4 +8.9 97 +9  1012.7  0.2  754  292           
00 21.07.17 тихо ()   2000 м  дымка  8/0 средняя 
[Ac trans]
+9 +8.6 97 +9  1012.9  0.2  754  293           
03 21.07.17 тихо ()   10 км  дымка  9/0 средняя 
[Ac trans]
+10.6 +10.3 98 +12  1013.3  0.4  754  291  +8.8    0.3     
06 21.07.17 тихо ()   20000 м    9/0 средняя 
[Ac trans]
+15.2 +12.1 82 +19  1013.8  0.6  755  286  +8.8        влажная 
09 21.07.17 290 (З) 40000 м    6/3 600 м средняя 
[Sc diur, vesp|Ac trans]
+17.6 +10 61 +20  1014  0.2  755  284           
12 21.07.17 330 (СЗ) 40000 м  {ливн. осадки}  8/8 600 м 
[Sc diur, vesp]
+18.9 +9.6 55 +21  1014  0.1  755  283           
15 21.07.17 тихо ()   40000 м    6/6 1000 м 
[Sc]
+18.2 +12.3 68 +22  1014.1  0.1  755  283         
18 21.07.17 260 (З) 30000 м  в посл. час гроза  3/3 600 м 
[Sc diur, vesp]
+13.7 +10.2 79 +16  1015.4  1.2  756  288    +20.1     
21 21.07.17 тихо ()   20000 м    1/1 1000 м 
[Sc]
+9.4 +8.8 96 +9  1015.8  0.3  756  293           
00 22.07.17 тихо ()   4000 м  дымка  1/1 1000 м 
[Sc]
+7.1 +6.7 97 +7  1016.4  0.5  757  296           
03 22.07.17 тихо ()   0100 м  туман  ?/?  
+10.1 +9.7 97 +11  1016.8  0.5  757  292  +6.2         
06 22.07.17 330 (СЗ) 20000 м  в посл. час туман  4/3 200 м средняя 
[St|Ac trans]
+14.1 +13.6 97 +21  1017  0.3  757  287  +6.2        влажная 
09 22.07.17 290 (З) 40000 м  гроза без осадков  8/8 1050 м кучево-дожд. 
[Cb calv]
+20.3 +11.3 56 +23  1016.2  -0.7  757  282           
12 22.07.17 270 (З) 25000 м  гроза без осадков{ливн. осадки}  9/5 600 м кучево-дожд., средняя 
[Cb calv|Ac trans]
+13.5 +12.9 96 +20  1017.4  1.1  757  288           
15 22.07.17 280 (З) 45000 м  {гроза, ливн. осадки}  5/3 600 м средняя, верхняя 
[Cu med, cong|Ac trans|Ci fib]
+17.3 +13.4 78 +25  1016.6  -0.7  757  284      11     
Время (UTC), дата Ветер
(°,м/с) 
Видим.   Явления Облачность Т
(°С)
Тd
(°С)
f(%) Тe
(°С)
Pmin
(гПа)
dP
(гПа)
Po
(мм)
O2
(г/м3)
Тmin Tmax R s Состояние
почвы

Для получения пояснительной информации подведите курсор к названию столбца.

ПОГОДА в Тихвине - архив

Всё, что Вы хотите узнать о погоде в Тихвине - удобно и подробно!

Выберите нужную дату (начиная с 1 января 2015* года) и нажмите кнопку "Найти".
Будут отображены архивные сводки погоды по пункту Тихвин, начиная с указанной даты.


Отображать данные в формате CSV (для использования в таблицах Excel)


Внимание! Наш архив погоды предназначен исключительно для личного некоммерческого использования в познавательных целях. Если Вам необходимы официальные справки о состоянии погоды (для производственных, юридических, коммерческих и т.п. целей), обращайтесь в органы Росгидромета.

*Примечание: данная дата относится к архиву по метеостанциям СССР (Россия, СНГ, Балтия).
Архив по метеостанциям Зарубежной Европы и Азии (кроме Китая) хранится 10 дней, по другим регионам земного шара (Китай, Африка, Америка, Австралия, Океания) - 1 день.

Тихвин - район местоположения метеостанции


Название, широта, долгота, высота метеостанции:
Тихвин 59.6°ш. 33.6°д. 61 м над ур. моря [Российская Федерация]

Дополнительная информация

В oтличие oт бoльшинства пoгoдных сайтoв мы публикуем пoдрoбную метеoинфoрмацию в детальнoм прoфессиoнальнoм фoрмате.

Характеристики температуры и влажнoсти вoздуха измеряются на высoте 2 м в тени вдали oт зданий и деревьев.
Скoрoсть ветра измеряется на высoте 10 м (на урoвне рoста челoвека скoрoсть ветра ниже в 1.5-2 раза). Если метеoстанция нахoдится в гoрoде или в лесу, тo скoрoсть ветра занижена на 2-4 м/с пo сравнению с oткрытым местoм. Скoрoсть ветра над акватoриями крупных рек и oзёр, а также на вершинах хoлмoв на 2-5 м/с выше, чем в oбычных услoвиях.
Атмoсфернoе давление в разных тoчках местнoсти мoжет значительнo oтличаться oт давления на метеoстанции, в зависимoсти oт услoвий рельефа (при пoдъёме на 10 м давление пoнижается примернo на 1 мм рт.ст.).